Weather observations for the past three days for
Atwood-Rawlins County City-County Airport
| Date | Time (cdt) | Wind (kph) | Vis. (km) | Weather | Sky Cond. | Temperature (ºC) | Relative Humidity | Wind Chill (°C) | Heat Index (°C) | Pressure | Precipitation (cm) | ||||||
|---|---|---|---|---|---|---|---|---|---|---|---|---|---|---|---|---|---|
| Air | Dwpt | 6 hour | altimeter (cm) | sea level (mb) | 1 hr | 3 hr | 6 hr | ||||||||||
| Max. | Min. | ||||||||||||||||
| 05 | 01:30 | S 13 | 16.09 | Fair | CLR | 26.5 | 14.7 | 48% | 27 | 76.23 | 0.0 | ||||||
| 05 | 01:10 | S 13 | 16.09 | Fair | CLR | 26 | 15.3 | 52% | 27 | 76.23 | 0.0 | ||||||
| 05 | 00:50 | S 9 | 16.09 | Fair | CLR | 25.7 | 15.6 | 54% | 26 | 76.2 | 0.0 | ||||||
| 05 | 00:30 | S 9 | 16.09 | Fair | CLR | 26.7 | 15.5 | 50% | 27 | 76.17 | 0.0 | ||||||
| 05 | 00:10 | S 13 | 16.09 | Fair | CLR | 26.6 | 15.7 | 51% | 27 | 76.2 | 0.0 | ||||||
| 04 | 23:50 | S 9 | 16.09 | Fair | CLR | 26.5 | 15.6 | 51% | 27 | 76.2 | 0.0 | ||||||
| 04 | 23:30 | SE 11 | 16.09 | Fair | CLR | 27.2 | 15.4 | 49% | 28 | 76.17 | 0.0 | ||||||
| 04 | 23:10 | SE 17 | 16.09 | Fair | CLR | 28.5 | 15 | 44% | 28 | 76.2 | 0.0 | ||||||
| 04 | 22:50 | SE 17 | 16.09 | Fair | CLR | 29 | 14.8 | 42% | 29 | 76.17 | 0.0 | ||||||
| 04 | 22:30 | SE 15 | 16.09 | Fair | CLR | 29.4 | 14.5 | 40% | 29 | 76.17 | 0.0 | ||||||
| 04 | 22:10 | SE 17 | 16.09 | Fair | CLR | 30 | 14.3 | 38% | 30 | 76.17 | 0.0 | ||||||
| 04 | 21:50 | SE 22 G 31 | 16.09 | Fair | CLR | 30.3 | 14.1 | 37% | 30 | 76.15 | 0.0 | ||||||
| 04 | 21:30 | S 13 | 16.09 | Fair | CLR | 30.5 | 14.1 | 37% | 30 | 76.15 | 0.0 | ||||||
| 04 | 21:10 | S 22 | 16.09 | Fair | CLR | 31.7 | 13.7 | 33% | 31 | 76.1 | 0.0 | ||||||
| 04 | 20:50 | S 24 G 31 | 16.09 | Fair | CLR | 32.5 | 13.5 | 31% | 32 | 76.07 | 0.0 | ||||||
| 04 | 20:30 | SE 22 G 35 | 16.09 | Fair | CLR | 33.2 | 13.5 | 30% | 32 | 76.02 | 0.0 | ||||||
| 04 | 20:10 | SE 22 G 28 | 16.09 | Fair | CLR | 33.3 | 13.7 | 30% | 32 | 76.02 | 0.0 | ||||||
| 04 | 19:50 | SE 19 | 16.09 | Fair | CLR | 34.5 | 13.7 | 28% | 34 | 76.02 | 0.0 | ||||||
| 04 | 19:30 | SE 17 G 26 | 16.09 | Fair | CLR | 35.4 | 13.5 | 27% | 35 | 76.02 | 0.0 | ||||||
| 04 | 19:10 | SE 19 | 16.09 | Fair | CLR | 36.4 | 12.6 | 24% | 35 | 76.02 | 0.0 | ||||||
| 04 | 18:50 | S 17 G 30 | 16.09 | Fair | CLR | 37.2 | 12.1 | 22% | 36 | 76 | 0.0 | ||||||
| 04 | 18:30 | S 28 G 37 | 16.09 | Fair | CLR | 0 | 0 | 0% | 76 | 0.0 | |||||||
| 04 | 18:10 | S 24 | 16.09 | Fair | CLR | 37.8 | 11.9 | 21% | 37 | 76 | 0.0 | ||||||
| 04 | 17:50 | SE 31 G 41 | 16.09 | Fair | CLR | 0 | 0 | 0% | 76 | 0.0 | |||||||
| 04 | 17:30 | SE 28 G 39 | 16.09 | Fair | CLR | 0 | 0 | 0% | 76 | 0.0 | |||||||
| 04 | 17:10 | SE 24 G 35 | 16.09 | Fair | CLR | 0 | 0 | 0% | 76 | 0.0 | |||||||
| 04 | 16:50 | S 20 G 26 | 16.09 | Fair | CLR | 36.9 | 12.9 | 24% | 36 | 76 | 0.0 | ||||||
| 04 | 16:30 | S 24 G 35 | 16.09 | Fair | CLR | 0 | 0 | 0% | 76 | 0.0 | |||||||
| 04 | 16:10 | SE 24 G 41 | 16.09 | Fair | CLR | 0 | 0 | 0% | 76.02 | 0.0 | |||||||
| 04 | 15:50 | SE 31 G 43 | 16.09 | Fair | CLR | 0 | 0 | 0% | 76.02 | 0.0 | |||||||
| 04 | 15:30 | SE 30 G 37 | 16.09 | Fair | CLR | 0 | 0 | 0% | 76.05 | 0.0 | |||||||
| 04 | 15:10 | SE 24 G 37 | 16.09 | Fair | CLR | 0 | 0 | 0% | 76.05 | 0.0 | |||||||
| 04 | 14:50 | S 17 G 30 | 16.09 | Fair | CLR | 37.7 | 9.8 | 18% | 36 | 76.05 | 0.0 | ||||||
| 04 | 14:30 | S 24 G 35 | 16.09 | Fair | CLR | 0 | 0 | 0% | 76.07 | 0.0 | |||||||
| 04 | 14:10 | S 17 G 33 | 16.09 | Fair | CLR | 35.5 | 12.1 | 24% | 34 | 76.05 | 0.0 | ||||||
| 04 | 13:50 | S 22 G 31 | 16.09 | Fair | CLR | 37.7 | 11.1 | 20% | 36 | 76.05 | 0.0 | ||||||
| 04 | 13:30 | S 26 G 33 | 16.09 | Fair | CLR | 37.1 | 11.5 | 21% | 36 | 76.07 | 0.0 | ||||||
| 04 | 13:10 | SE 15 | 16.09 | Fair | CLR | 36.4 | 12 | 23% | 35 | 76.1 | 0.0 | ||||||
| 04 | 12:50 | S 13 | 16.09 | Fair | CLR | 35.4 | 12.1 | 24% | 34 | 76.12 | 0.0 | ||||||
| 04 | 12:30 | S 11 | 16.09 | Fair | CLR | 34.6 | 12.1 | 25% | 33 | 76.12 | 0.0 | ||||||
| 04 | 12:10 | SE 15 G 28 | 16.09 | Fair | CLR | 34 | 13.2 | 28% | 33 | 76.12 | 0.0 | ||||||
| 04 | 11:50 | S 13 | 16.09 | Fair | CLR | 33.2 | 13.7 | 31% | 32 | 76.12 | 0.0 | ||||||
| 04 | 11:30 | S 11 | 16.09 | Fair | CLR | 31.8 | 12.9 | 32% | 31 | 76.12 | 0.0 | ||||||
| 04 | 11:10 | SW 13 | 16.09 | Fair | CLR | 30.9 | 12.8 | 33% | 30 | 76.12 | 0.0 | ||||||
| 04 | 10:50 | SW 9 | 16.09 | Fair | CLR | 30.4 | 13.1 | 35% | 30 | 76.12 | 0.0 | ||||||
| 04 | 10:30 | SW 17 | 16.09 | Fair | CLR | 29 | 12.9 | 37% | 28 | 76.12 | 0.0 | ||||||
| 04 | 10:10 | S 13 G 19 | 16.09 | Fair | CLR | 28.3 | 13.3 | 40% | 28 | 76.12 | 0.0 | ||||||
| 04 | 09:50 | Calm | 16.09 | Fair | CLR | 26.8 | 14 | 45% | 27 | 76.12 | 0.0 | ||||||
| 04 | 09:30 | SW 17 G 26 | 16.09 | Fair | CLR | 27.1 | 14 | 45% | 27 | 76.1 | 0.0 | ||||||
| 04 | 09:10 | S 17 G 30 | 16.09 | Fair | CLR | 27.5 | 14.3 | 44% | 28 | 76.1 | 0.0 | ||||||
| 04 | 08:50 | S 17 | 16.09 | Fair | CLR | 26.1 | 14.6 | 49% | 27 | 76.1 | 0.0 | ||||||
| 04 | 08:30 | S 11 | 16.09 | Fair | CLR | 24.4 | 14.6 | 54% | 26 | 76.07 | 0.0 | ||||||
| 04 | 08:10 | S 15 | 16.09 | Fair | CLR | 24.1 | 14.5 | 55% | 25 | 76.05 | 0.0 | ||||||
| 04 | 07:50 | SE 19 | 16.09 | Fair | CLR | 24.1 | 14.1 | 54% | 25 | 76.05 | 0.0 | ||||||
| 04 | 07:30 | S 17 | 16.09 | Fair | CLR | 24.2 | 13.9 | 53% | 25 | 76.02 | 0.0 | ||||||
| 04 | 07:10 | S 15 | 16.09 | Fair | CLR | 23.9 | 13.7 | 53% | 25 | 76.02 | 0.0 | ||||||
| 04 | 06:50 | S 13 | 16.09 | Fair | CLR | 23.6 | 13.7 | 54% | 76.02 | 0.0 | |||||||
| 04 | 06:30 | S 13 | 16.09 | Fair | CLR | 23.6 | 13.6 | 54% | 76.02 | 0.0 | |||||||
| 04 | 06:10 | S 13 | 16.09 | Fair | CLR | 23.8 | 13.5 | 53% | 76.02 | 0.0 | |||||||
| 04 | 05:50 | S 15 | 16.09 | Fair | CLR | 23.5 | 13.6 | 54% | 76.05 | 0.0 | |||||||
| 04 | 05:30 | S 9 | 16.09 | Fair | CLR | 22.7 | 13.6 | 57% | 76.02 | 0.0 | |||||||
| 04 | 05:10 | S 6 | 16.09 | Fair | CLR | 23.2 | 13.5 | 55% | 76.02 | 0.0 | |||||||
| 04 | 04:50 | S 11 | 16.09 | Fair | CLR | 24.9 | 13.1 | 48% | 26 | 76.02 | 0.0 | ||||||
| 04 | 04:30 | S 13 | 16.09 | Fair | CLR | 24.8 | 13.3 | 49% | 26 | 76.02 | 0.0 | ||||||
| 04 | 04:10 | S 9 | 16.09 | Fair | CLR | 23.6 | 14 | 55% | 76.05 | 0.0 | |||||||
| 04 | 03:50 | S 13 G 26 | 16.09 | Fair | CLR | 24.3 | 14 | 53% | 26 | 76.05 | 0.0 | ||||||
| 04 | 03:30 | SE 6 | 16.09 | Fair | CLR | 22.9 | 14.5 | 59% | 76.02 | 0.0 | |||||||
| 04 | 03:10 | SE 6 | 16.09 | Fair | CLR | 22.1 | 14.6 | 63% | 76.02 | 0.0 | |||||||
| 04 | 02:50 | E 7 | 16.09 | Fair | CLR | 21.6 | 14.6 | 65% | 76.02 | 0.0 | |||||||
| 04 | 02:30 | E 9 | 16.09 | Fair | CLR | 21.7 | 14.6 | 64% | 76.02 | 0.0 | |||||||
| 04 | 02:10 | E 7 | 16.09 | Fair | CLR | 22.4 | 14.5 | 61% | 76.05 | 0.0 | |||||||
| 04 | 01:50 | E 7 | 16.09 | Fair | CLR | 21.8 | 14.5 | 63% | 76.07 | 0.0 | |||||||
| 04 | 01:30 | E 7 | 16.09 | Fair | CLR | 21.2 | 13.9 | 63% | 76.1 | 0.0 | |||||||
| 04 | 01:10 | E 15 | 16.09 | Fair | CLR | 21.1 | 13.9 | 64% | 76.1 | 0.0 | |||||||
| 04 | 00:50 | E 6 | 16.09 | Fair | CLR | 20.9 | 13.9 | 64% | 76.07 | 0.0 | |||||||
| 04 | 00:30 | E 6 | 16.09 | Fair | CLR | 21.2 | 13.6 | 62% | 76.07 | 0.0 | |||||||
| 04 | 00:10 | NE 9 | 16.09 | Fair | CLR | 21 | 14.3 | 66% | 76.05 | 0.0 | |||||||
| 03 | 23:50 | NE 6 | 16.09 | Fair | CLR | 22.7 | 13.7 | 57% | 76.07 | 0.0 | |||||||
| 03 | 23:30 | E 7 | 16.09 | Fair | CLR | 22.5 | 13.8 | 58% | 76.07 | 0.0 | |||||||
| 03 | 23:10 | E 7 | 16.09 | Fair | CLR | 22.6 | 14 | 58% | 76.07 | 0.0 | |||||||
| 03 | 22:50 | E 7 | 16.09 | Fair | CLR | 23.4 | 14.1 | 56% | 76.1 | 0.0 | |||||||
| 03 | 22:30 | E 9 | 16.09 | Fair | CLR | 23.3 | 13.8 | 55% | 76.1 | 0.0 | |||||||
| 03 | 22:10 | E 9 | 16.09 | Fair | CLR | 23.7 | 13.5 | 53% | 76.07 | 0.0 | |||||||
| 03 | 21:50 | E 9 | 16.09 | Fair | CLR | 24.9 | 13.5 | 49% | 26 | 76.07 | 0.0 | ||||||
| 03 | 21:30 | NE 11 | 16.09 | Fair | CLR | 25.5 | 13.5 | 47% | 26 | 76.05 | 0.0 | ||||||
| 03 | 21:10 | NE 9 | 16.09 | Fair | CLR | 25.8 | 13.5 | 47% | 26 | 76.05 | 0.0 | ||||||
| 03 | 20:50 | NE 11 | 16.09 | Fair | CLR | 27.2 | 13.3 | 42% | 27 | 76.02 | 0.0 | ||||||
| 03 | 20:30 | NE 11 | 16.09 | Fair | CLR | 28.3 | 13.1 | 39% | 28 | 76.02 | 0.0 | ||||||
| 03 | 20:10 | NE 9 | 16.09 | Fair | CLR | 29.2 | 13.1 | 37% | 29 | 76.02 | 0.0 | ||||||
| 03 | 19:50 | E 11 | 16.09 | Fair | CLR | 31 | 13 | 33% | 30 | 76 | 0.0 | ||||||
| 03 | 19:30 | E 11 | 16.09 | Fair | CLR | 32.6 | 12.3 | 29% | 31 | 76 | 0.0 | ||||||
| 03 | 19:10 | E 15 | 16.09 | Fair | CLR | 33.8 | 11.7 | 26% | 32 | 76 | 0.0 | ||||||
| 03 | 18:50 | E 13 | 16.09 | Fair | CLR | 34.7 | 11 | 24% | 33 | 76 | 0.0 | ||||||
| 03 | 18:30 | NE 7 | 16.09 | Fair | CLR | 35 | 11 | 23% | 33 | 76 | 0.0 | ||||||
| 03 | 18:10 | E 9 | 16.09 | Fair | CLR | 35.4 | 10.7 | 22% | 34 | 76 | 0.0 | ||||||
| 03 | 17:50 | NE 6 | 16.09 | Fair | CLR | 35.6 | 10.6 | 22% | 34 | 75.97 | 0.0 | ||||||
| 03 | 17:30 | N 11 | 16.09 | Fair | CLR | 35.6 | 10 | 21% | 34 | 75.97 | 0.0 | ||||||
| 03 | 17:10 | N 13 | 16.09 | Fair | CLR | 35.6 | 10.2 | 21% | 34 | 75.97 | 0.0 | ||||||
| 03 | 16:50 | N 7 | 16.09 | Fair | CLR | 35.8 | 10.2 | 21% | 34 | 75.97 | 0.0 | ||||||
| 03 | 16:30 | N 22 | 16.09 | Fair | CLR | 36.1 | 11 | 22% | 35 | 75.97 | 0.0 | ||||||
| 03 | 16:10 | N 7 | 16.09 | Fair | CLR | 35.5 | 11.4 | 23% | 34 | 75.97 | 0.0 | ||||||
| 03 | 15:50 | N 15 G 26 | 16.09 | Fair | CLR | 35.9 | 11.3 | 22% | 34 | 76 | 0.0 | ||||||
| 03 | 15:30 | NE 19 | 16.09 | Fair | CLR | 35.8 | 11.8 | 23% | 34 | 75.97 | 0.0 | ||||||
| 03 | 15:10 | N 19 G 28 | 16.09 | Fair | CLR | 35.5 | 12 | 24% | 34 | 75.97 | 0.0 | ||||||
| 03 | 14:50 | NW 20 G 30 | 16.09 | Fair | CLR | 35.2 | 11.6 | 24% | 34 | 75.97 | 0.0 | ||||||
| 03 | 14:30 | N 15 | 16.09 | Fair | CLR | 35.3 | 11.8 | 24% | 34 | 75.97 | 0.0 | ||||||
| 03 | 14:10 | N 11 | 16.09 | Fair | CLR | 34.4 | 11.3 | 24% | 33 | 76 | 0.0 | ||||||
| 03 | 13:30 | NW 9 | 16.09 | Fair | CLR | 34 | 11.9 | 26% | 33 | 76 | 0.0 | ||||||
| 03 | 13:10 | NW 15 | 16.09 | Fair | CLR | 33.4 | 12.6 | 28% | 32 | 76.02 | 0.0 | ||||||
| 03 | 12:50 | NW 7 | 16.09 | Fair | CLR | 33 | 12.8 | 29% | 32 | 76.02 | 0.0 | ||||||
| 03 | 12:30 | NW 11 | 16.09 | Fair | CLR | 32.2 | 13 | 31% | 31 | 76.02 | 0.0 | ||||||
| 03 | 12:10 | NW 9 | 16.09 | Fair | CLR | 31.8 | 13 | 32% | 31 | 76.02 | 0.0 | ||||||
| 03 | 11:50 | NW 9 | 16.09 | Fair | CLR | 30.7 | 13.1 | 34% | 30 | 76.02 | 0.0 | ||||||
| 03 | 11:30 | Calm | 16.09 | Fair | CLR | 30.2 | 13.2 | 35% | 29 | 76.02 | 0.0 | ||||||
| 03 | 11:10 | NW 7 | 16.09 | Fair | CLR | 29.6 | 13.4 | 37% | 29 | 76.02 | 0.0 | ||||||
| 03 | 10:50 | NW 9 | 16.09 | Fair | CLR | 28.6 | 13.5 | 40% | 28 | 76.02 | 0.0 | ||||||
| 03 | 10:30 | NW 11 | 16.09 | Fair | CLR | 27.9 | 13.6 | 41% | 28 | 76.02 | 0.0 | ||||||
| 03 | 10:10 | NW 9 | 16.09 | Fair | CLR | 26.5 | 13.6 | 45% | 27 | 76 | 0.0 | ||||||
| 03 | 09:50 | NW 9 | 16.09 | Fair | CLR | 25.3 | 13.6 | 48% | 26 | 76 | 0.0 | ||||||
| 03 | 09:30 | NW 7 | 16.09 | Fair | CLR | 23.8 | 13.8 | 54% | 75.97 | 0.0 | |||||||
| 03 | 09:10 | W 11 | 16.09 | Fair | CLR | 23.2 | 14.2 | 57% | 76 | 0.0 | |||||||
| 03 | 08:50 | W 11 | 16.09 | Fair | CLR | 21.8 | 14.4 | 63% | 76 | 0.0 | |||||||
| 03 | 08:30 | W 6 | 16.09 | Fair | CLR | 20.4 | 14.3 | 68% | 75.97 | 0.0 | |||||||
| 03 | 08:10 | Calm | 16.09 | Fair | CLR | 19 | 14 | 73% | 75.97 | 0.0 | |||||||
| 03 | 07:50 | SW 6 | 16.09 | Fair | CLR | 18 | 13.5 | 75% | 75.97 | 0.0 | |||||||
| 03 | 07:30 | W 6 | 16.09 | Fair | CLR | 17.7 | 13.2 | 75% | 75.97 | 0.0 | |||||||
| 03 | 07:10 | NW 11 | 16.09 | Fair | CLR | 18.4 | 13.4 | 73% | 75.97 | 0.0 | |||||||
| 03 | 06:50 | Calm | 16.09 | Fair | CLR | 19.1 | 13.6 | 71% | 75.95 | 0.0 | |||||||
| 03 | 06:30 | NW 6 | 16.09 | Fair | CLR | 19.9 | 13.6 | 67% | 75.95 | 0.0 | |||||||
| 03 | 06:10 | Calm | 16.09 | Fair | CLR | 20.2 | 13.5 | 66% | 75.95 | 0.0 | |||||||
| 03 | 05:50 | Calm | 16.09 | Fair | CLR | 21.6 | 13.4 | 60% | 75.95 | 0.0 | |||||||
| 03 | 05:30 | Calm | 16.09 | Fair | CLR | 22.1 | 13.5 | 58% | 75.95 | 0.0 | |||||||
| 03 | 05:10 | SW 7 | 16.09 | Fair | CLR | 22.5 | 13.5 | 57% | 75.95 | 0.0 | |||||||
| 03 | 04:50 | W 13 | 16.09 | Fair | CLR | 23.8 | 13.3 | 52% | 75.95 | 0.0 | |||||||
| 03 | 04:30 | W 19 G 31 | 16.09 | Fair | CLR | 22.6 | 13.6 | 57% | 75.97 | 0.0 | |||||||
| 03 | 04:10 | S 15 | 16.09 | Fair | CLR | 24.6 | 13.1 | 49% | 26 | 75.92 | 0.0 | ||||||
| 03 | 03:50 | S 11 | 16.09 | Fair | CLR | 23.6 | 13.1 | 52% | 75.92 | 0.0 | |||||||
| 03 | 03:30 | S 13 | 16.09 | Fair | CLR | 22.5 | 13.1 | 55% | 75.95 | 0.0 | |||||||
| 03 | 03:10 | S 6 | 16.09 | Fair | CLR | 22.9 | 12.8 | 53% | 75.95 | 0.0 | |||||||
| 03 | 02:50 | S 9 | 16.09 | Fair | CLR | 23.8 | 12.5 | 49% | 75.95 | 0.0 | |||||||
| 03 | 02:30 | SW 6 | 16.09 | Fair | CLR | 23.7 | 11.6 | 47% | 75.97 | 0.0 | |||||||
| 03 | 02:10 | Calm | 16.09 | Fair | CLR | 23.2 | 11.5 | 48% | 75.97 | 0.0 | |||||||
| 03 | 01:50 | Calm | 16.09 | Fair | CLR | 22.9 | 10.3 | 45% | 75.97 | 0.0 | |||||||
| 03 | 01:30 | Calm | 16.09 | Fair | CLR | 22.6 | 9.6 | 44% | 75.97 | 0.0 | |||||||
| 03 | 01:10 | Calm | 16.09 | Fair | CLR | 22.2 | 9 | 43% | 75.97 | 0.0 | |||||||
| 03 | 00:50 | SW 6 | 16.09 | Fair | CLR | 22.7 | 8.2 | 40% | 75.97 | 0.0 | |||||||
| 03 | 00:30 | SW 7 | 16.09 | Fair | CLR | 22 | 8.4 | 42% | 75.97 | 0.0 | |||||||
| 03 | 00:10 | SW 7 | 16.09 | Fair | CLR | 24.4 | 7.4 | 34% | 25 | 75.97 | 0.0 | ||||||
| 02 | 23:50 | Calm | 16.09 | Fair | CLR | 25 | 7.1 | 32% | 25 | 75.97 | 0.0 | ||||||
| 02 | 23:30 | SW 9 | 16.09 | Fair | CLR | 25.8 | 7.1 | 30% | 26 | 75.97 | 0.0 | ||||||
| 02 | 23:10 | SW 6 | 16.09 | Fair | CLR | 27.4 | 6.7 | 27% | 27 | 75.97 | 0.0 | ||||||
| 02 | 22:50 | SW 9 | 16.09 | Fair | CLR | 25.9 | 7.2 | 30% | 26 | 75.97 | 0.0 | ||||||
| 02 | 22:30 | SW 6 | 16.09 | Fair | CLR | 26.9 | 7.2 | 29% | 26 | 75.95 | 0.0 | ||||||
| 02 | 22:10 | S 13 | 16.09 | Fair | CLR | 28 | 7.1 | 27% | 27 | 75.95 | 0.0 | ||||||
| 02 | 21:50 | S 11 | 16.09 | Fair | CLR | 28.5 | 7.1 | 26% | 27 | 75.95 | 0.0 | ||||||
| 02 | 21:30 | S 13 | 16.09 | Fair | CLR | 29 | 7.1 | 25% | 28 | 75.95 | 0.0 | ||||||
| 02 | 21:10 | S 11 | 16.09 | Fair | CLR | 29.8 | 6.9 | 24% | 28 | 75.95 | 0.0 | ||||||
| 02 | 20:50 | S 11 | 16.09 | Fair | CLR | 29.8 | 6.6 | 23% | 28 | 75.9 | 0.0 | ||||||
| 02 | 20:30 | S 11 | 16.09 | Fair | CLR | 31 | 6.4 | 21% | 29 | 75.9 | 0.0 | ||||||
| 02 | 20:10 | S 11 | 16.09 | Fair | CLR | 32.4 | 5.7 | 19% | 30 | 75.9 | 0.0 | ||||||
| 02 | 19:50 | S 13 | 16.09 | Fair | CLR | 33.8 | 4.5 | 16% | 31 | 75.9 | 0.0 | ||||||
| 02 | 19:30 | S 15 | 16.09 | Fair | CLR | 35.2 | 3.1 | 13% | 33 | 75.87 | 0.0 | ||||||
| 02 | 19:10 | S 20 G 28 | 16.09 | Fair | CLR | 36 | 4.1 | 14% | 33 | 75.9 | 0.0 | ||||||
| 02 | 18:50 | S 20 G 33 | 16.09 | Fair | CLR | 36.6 | 4.8 | 14% | 34 | 75.9 | 0.0 | ||||||
| 02 | 18:30 | S 26 G 33 | 16.09 | Fair | CLR | 37.2 | 5.1 | 14% | 35 | 75.9 | 0.0 | ||||||
| 02 | 18:10 | S 24 G 37 | 16.09 | Fair | CLR | 37.4 | 5.2 | 14% | 35 | 75.9 | 0.0 | ||||||
| 02 | 17:50 | S 22 G 43 | 16.09 | Fair | CLR | 37.4 | 5.9 | 14% | 35 | 75.9 | 0.0 | ||||||
| 02 | 17:30 | S 19 | 16.09 | Fair | CLR | 37.6 | 6.9 | 15% | 35 | 75.9 | 0.0 | ||||||
| 02 | 17:10 | S 22 | 16.09 | Fair | CLR | 37.7 | 6.9 | 15% | 35 | 75.9 | 0.0 | ||||||
| 02 | 16:50 | S 22 G 31 | 16.09 | Fair | CLR | 37.5 | 7.2 | 16% | 35 | 75.9 | 0.0 | ||||||
| 02 | 16:30 | S 22 G 30 | 16.09 | Fair | CLR | 37.3 | 11.1 | 20% | 36 | 75.95 | 0.0 | ||||||
| 02 | 16:10 | S 13 G 30 | 16.09 | Fair | CLR | 36.6 | 12.2 | 23% | 35 | 75.97 | 0.0 | ||||||
| 02 | 15:50 | S 17 | 16.09 | Fair | CLR | 36.7 | 12.5 | 23% | 36 | 76 | 0.0 | ||||||
| 02 | 15:30 | S 13 G 26 | 16.09 | Fair | CLR | 36.3 | 12.4 | 24% | 35 | 76.02 | 0.0 | ||||||
| 02 | 15:10 | SE 15 G 26 | 16.09 | Fair | CLR | 36.1 | 12.2 | 24% | 35 | 76.02 | 0.0 | ||||||
| 02 | 14:50 | S 17 | 16.09 | Fair | CLR | 36 | 12.5 | 24% | 35 | 76.05 | 0.0 | ||||||
| 02 | 14:30 | SE 7 | 16.09 | Fair | CLR | 35.7 | 12.8 | 25% | 35 | 76.05 | 0.0 | ||||||
| 02 | 14:10 | S 11 | 16.09 | Fair | CLR | 35.8 | 13.1 | 25% | 35 | 76.05 | 0.0 | ||||||
| 02 | 13:50 | S 11 | 16.09 | Fair | CLR | 35.2 | 13.2 | 26% | 34 | 76.07 | 0.0 | ||||||
| 02 | 13:30 | S 11 | 16.09 | Fair | CLR | 34.8 | 13.3 | 27% | 34 | 76.1 | 0.0 | ||||||
| 02 | 13:10 | Calm | 16.09 | Fair | CLR | 34.1 | 12.9 | 28% | 33 | 76.12 | 0.0 | ||||||
| 02 | 12:50 | SW 13 | 16.09 | Fair | CLR | 33.7 | 13.3 | 29% | 33 | 76.12 | 0.0 | ||||||
| 02 | 12:30 | Calm | 16.09 | Fair | CLR | 32.8 | 13.1 | 30% | 32 | 76.15 | 0.0 | ||||||
| 02 | 12:10 | W 6 | 16.09 | Fair | CLR | 31.7 | 13.5 | 33% | 31 | 76.17 | 0.0 | ||||||
| 02 | 11:50 | SW 6 | 16.09 | Fair | CLR | 31.1 | 13.6 | 34% | 30 | 76.17 | 0.0 | ||||||
| 02 | 11:30 | S 6 | 16.09 | Fair | CLR | 29.9 | 13.9 | 38% | 29 | 76.17 | 0.0 | ||||||
| 02 | 11:10 | SW 6 | 16.09 | Fair | CLR | 29.2 | 14.3 | 40% | 29 | 76.17 | 0.0 | ||||||
| 02 | 10:50 | Calm | 16.09 | Fair | CLR | 28.3 | 14.2 | 42% | 28 | 76.2 | 0.0 | ||||||
| 02 | 10:30 | SW 9 | 16.09 | Fair | CLR | 27.5 | 14.2 | 44% | 27 | 76.2 | 0.0 | ||||||
| 02 | 10:10 | SW 9 | 16.09 | Fair | CLR | 26.5 | 14.5 | 48% | 27 | 76.2 | 0.0 | ||||||
| 02 | 09:50 | SW 15 | 16.09 | Fair | CLR | 25.6 | 14.4 | 50% | 26 | 76.17 | 0.0 | ||||||
| 02 | 09:30 | SW 6 | 16.09 | Fair | CLR | 24.1 | 15 | 57% | 25 | 76.2 | 0.0 | ||||||
| 02 | 09:10 | SW 6 | 16.09 | Fair | CLR | 22.9 | 14.8 | 60% | 76.23 | 0.0 | |||||||
| 02 | 08:50 | W 9 | 16.09 | Fair | CLR | 21.5 | 15 | 67% | 76.23 | 0.0 | |||||||
| 02 | 08:30 | SW 7 | 16.09 | Fair | CLR | 20.7 | 14.5 | 68% | 76.23 | 0.0 | |||||||
| 02 | 08:10 | W 7 | 16.09 | Fair | CLR | 19.4 | 14.5 | 73% | 76.23 | 0.0 | |||||||
| 02 | 07:50 | Calm | 16.09 | Fair | CLR | 18.2 | 14.4 | 79% | 76.23 | 0.0 | |||||||
| 02 | 07:30 | Calm | 16.09 | Fair | CLR | 18.2 | 14 | 77% | 76.23 | 0.0 | |||||||
| 02 | 07:10 | Calm | 16.09 | Fair | CLR | 17.7 | 14 | 79% | 76.23 | 0.0 | |||||||
| 02 | 06:50 | W 6 | 16.09 | Fair | CLR | 17.7 | 14 | 79% | 76.23 | 0.0 | |||||||
| 02 | 06:30 | SW 6 | 16.09 | Fair | CLR | 18.1 | 14 | 77% | 76.2 | 0.0 | |||||||
| 02 | 06:10 | W 7 | 16.09 | Fair | CLR | 18 | 14 | 78% | 76.17 | 0.0 | |||||||
| 02 | 05:50 | Calm | 16.09 | Fair | CLR | 19.2 | 13.8 | 71% | 76.2 | 0.0 | |||||||
| 02 | 05:30 | Calm | 16.09 | Fair | CLR | 19.4 | 13.8 | 70% | 76.23 | 0.0 | |||||||
| 02 | 05:10 | Calm | 16.09 | Fair | CLR | 20.7 | 13.5 | 64% | 76.23 | 0.0 | |||||||
| 02 | 04:50 | S 7 | 16.09 | Fair | CLR | 20.5 | 13.8 | 66% | 76.23 | 0.0 | |||||||
| 02 | 04:30 | SW 6 | 16.09 | Fair | CLR | 20.2 | 13.9 | 67% | 76.23 | 0.0 | |||||||
| 02 | 04:10 | SW 6 | 16.09 | Fair | CLR | 21.6 | 13.5 | 60% | 76.23 | 0.0 | |||||||
| 02 | 03:50 | SW 7 | 16.09 | Fair | CLR | 21.4 | 13.5 | 61% | 76.23 | 0.0 | |||||||
| 02 | 03:30 | SW 6 | 16.09 | Fair | CLR | 21.6 | 13.5 | 60% | 76.23 | 0.0 | |||||||
| 02 | 03:10 | SW 13 | 16.09 | Fair | CLR | 22.8 | 13.2 | 55% | 76.2 | 0.0 | |||||||
| 02 | 02:50 | SW 6 | 16.09 | Fair | CLR | 21.9 | 13.5 | 59% | 76.2 | 0.0 | |||||||
| 02 | 02:30 | SW 9 | 16.09 | Fair | CLR | 21.3 | 13.7 | 62% | 76.17 | 0.0 | |||||||
| 02 | 02:10 | SW 9 | 16.09 | Fair | CLR | 22.3 | 13.7 | 58% | 76.2 | 0.0 | |||||||
| Date | Time (cdt) | Wind (kph) | Vis. (km) | Weather | Sky Cond. | Air | Dwpt | Max. | Min. | Relative Humidity | Wind Chill (°C) | Heat Index (°C) | altimeter (cm) | sea level (mb) | 1 hr | 3 hr | 6 hr |
| 6 hour | |||||||||||||||||
| Temperature (ºC) | Pressure | Precipitation (cm) | |||||||||||||||